OPS 4682 DEB, 18269

Orbit data source: Space-Track

OPS 4682 DEB, 18269 is space debris in LEO originally from a launch on Sat, 03 Apr 1965 UTC launched from the Air Force Western Test Range (AFWTR). Debris objects in space refer to the collection of defunct objects orbiting the Earth. Examples of debris include non-operational satellites, rocket bodies, and fragments generated from explosions, collisions, or faulty payload assembly.

Loading next visibility...
Identifier
18269, 1965-027Y
Orbit
LEO
Country
Flag of USUS
Related business
Manufacturer
Unknown
Mission
Spacecraft
Bus & Motor
Unknown
Mass
Unknown
Launch date (UTC)
1965-04-03 (61 years ago)
Launch vehicle
Unknown
Launch site
Air Force Western Test Range (AFWTR)
Object type
Payload
Rocket body
Debris
Shape & HBR
Unknown shape, 0.1 m
Radar Cross Section
Small (<0.1 m²)

Expand to show TLE details & history
Last TLE update: 6 days ago

TLE from 6 days ago
0 OPS 4682 DEB
1 18269U 65027Y   26232.14192561  .00000271  00000-0  92805-3 0  9997
2 18269  90.2627  15.0979 0030440  16.0912 344.1168 12.95967086578173
Epoch: 2026-08-20T03:24Z
TLE epoch observation values (Epoch: 2026-08-20T03:24:22.372Z)
Latitude
0.00001°
Longitude
-4.48061°
Altitude
1,258.392 km
Speed
7.237 km/s
True Right ascension
01h 00m 23s
True Declination
0° 00' 00"
Sunlit
Object was in full shadow at epoch
Visualization orbit readout
Latitude
Unknown
Longitude
Unknown
Altitude
Unknown
Speed
Unknown
Apparent Right ascension
Unknown
Apparent Declination
Unknown
Sunlit
N/A
Visualization observer readout
Local Sidereal Time
19:10:50
Azimuth
Unknown
Elevation
Unknown
Doppler factor
Unknown
Orbital elements
Apogee altitude
1,298.358 km
Perigee altitude
1,251.765 km
Semi-major axis
7,653.199 km
Eccentricity
0.00304
Inclination
90.2627°
RAAN
15.0979°
Arg. of periapsis
16.0912°
True anomaly
344.02099°
Mean anomaly
344.1168°
Eccentric anomaly
344.06893°
Mean motion
3.24174 °/min
Orbital period
111.05 mins
BSTAR
0.00092805
Loading maneuver chart data...
Computing Atmospheric mass density...
Loading historical data...
Loading historical data...
Loading historical data...
Loading historical data...
Loading historical data...
Loading historical data...
Loading historical data...

Documentation

Showing up to 5 results
|